• In Czech Republic
  • List of Countries
  • For 7 days
  • Water Temperature
  • Satellite Maps
  • Weather Map
  • Weather Widgets
  • user-avatar
    Login

    Hourly Weather Durham

    Today, 17 October, Tuesday

    Time Temperature Precipitation Wind Pressure Humidity
    00:00 +13°C° 0 mm 12 mps 747 mmHg 68%
    01:00 +12°C° 0 mm 13 mps 747 mmHg 68%
    02:00 +12°C° 0 mm 13 mps 747 mmHg 68%
    03:00 +12°C° 0 mm 14 mps 748 mmHg 67%
    04:00 +10°C° 0 mm 13 mps 748 mmHg 68%
    05:00 +10°C° 0 mm 13 mps 749 mmHg 69%
    06:00 +10°C° 0 mm 13 mps 749 mmHg 70%
    07:00 +10°C° 0 mm 13 mps 750 mmHg 71%
    08:00 +10°C° 0 mm 12 mps 750 mmHg 71%
    09:00 +10°C° 0 mm 12 mps 751 mmHg 72%
    10:00 +11°C° 0 mm 11 mps 752 mmHg 72%
    11:00 +11°C° 0 mm 11 mps 752 mmHg 72%
    12:00 +11°C° 0 mm 10 mps 753 mmHg 72%
    13:00 +11°C° 0 mm 10 mps 753 mmHg 73%
    14:00 +11°C° 0 mm 9 mps 754 mmHg 75%
    15:00 +11°C° 0 mm 8 mps 754 mmHg 76%
    16:00 +11°C° 0 mm 7 mps 754 mmHg 78%
    17:00 +11°C° 0 mm 6 mps 755 mmHg 80%
    18:00 +10°C° 0 mm 5 mps 755 mmHg 81%
    19:00 +11°C° 0 mm 4 mps 755 mmHg 84%
    20:00 +10°C° 0 mm 4 mps 755 mmHg 87%
    21:00 +10°C° 0 mm 3 mps 756 mmHg 89%
    22:00 +9°C° 0 mm 2 mps 756 mmHg 90%
    23:00 +9°C° 0 mm 2 mps 756 mmHg 90%

    Tomorrow, 18 October, Wednesday

    Time Temperature Precipitation Wind Pressure Humidity
    00:00 +10°C° 0 mm 1 mps 756 mmHg 90%
    01:00 +10°C° 0 mm 1 mps 755 mmHg 91%
    02:00 +10°C° 0 mm 1 mps 755 mmHg 91%
    03:00 +10°C° 0 mm 1 mps 755 mmHg 91%
    04:00 +10°C° 0 mm 1 mps 755 mmHg 92%
    05:00 +10°C° 0 mm 1 mps 755 mmHg 92%
    06:00 +10°C° 0 mm 1 mps 755 mmHg 93%
    07:00 +9°C° 0 mm 2 mps 755 mmHg 91%
    08:00 +10°C° 0 mm 2 mps 755 mmHg 89%
    09:00 +12°C° 0 mm 2 mps 755 mmHg 87%
    10:00 +11°C° 0 mm 3 mps 754 mmHg 84%
    11:00 +12°C° 0 mm 3 mps 754 mmHg 82%
    12:00 +12°C° 0 mm 3 mps 754 mmHg 80%
    13:00 +12°C° 0 mm 4 mps 754 mmHg 80%
    14:00 +12°C° 0 mm 4 mps 753 mmHg 80%
    15:00 +12°C° 0 mm 4 mps 753 mmHg 80%
    16:00 +12°C° 0 mm 4 mps 753 mmHg 83%
    17:00 +11°C° 0 mm 4 mps 752 mmHg 86%
    18:00 +11°C° 0 mm 3 mps 752 mmHg 89%
    19:00 +11°C° 0.1 mm 3 mps 752 mmHg 90%
    20:00 +11°C° 0.1 mm 4 mps 751 mmHg 91%
    21:00 +11°C° 0.1 mm 4 mps 751 mmHg 91%
    22:00 +11°C° 0 mm 4 mps 751 mmHg 92%
    23:00 +11°C° 0 mm 4 mps 750 mmHg 93%

    Day after tomorrow, 19 October, Thursday

    Time Temperature Precipitation Wind Pressure Humidity
    00:00 +11°C° 0 mm 4 mps 750 mmHg 95%
    01:00 +11°C° 0 mm 3 mps 749 mmHg 95%
    02:00 +11°C° 0 mm 3 mps 749 mmHg 95%
    03:00 +11°C° 0 mm 3 mps 749 mmHg 95%
    04:00 +11°C° 0 mm 3 mps 748 mmHg 95%
    05:00 +11°C° 0 mm 3 mps 748 mmHg 95%
    06:00 +11°C° 0 mm 3 mps 747 mmHg 95%
    07:00 +12°C° 0.1 mm 4 mps 747 mmHg 94%
    08:00 +12°C° 0.1 mm 4 mps 747 mmHg 93%
    09:00 +13°C° 0.1 mm 4 mps 747 mmHg 92%
    10:00 +13°C° 0.3 mm 4 mps 746 mmHg 91%
    11:00 +13°C° 0.3 mm 4 mps 746 mmHg 90%
    12:00 +14°C° 0.3 mm 4 mps 746 mmHg 89%
    13:00 +14°C° 0.1 mm 4 mps 745 mmHg 88%
    14:00 +14°C° 0.1 mm 4 mps 745 mmHg 86%
    15:00 +14°C° 0.1 mm 4 mps 744 mmHg 84%
    16:00 +14°C° 0 mm 4 mps 744 mmHg 85%
    17:00 +13°C° 0 mm 4 mps 744 mmHg 86%
    18:00 +12°C° 0 mm 4 mps 743 mmHg 87%
    19:00 +12°C° 0.6 mm 4 mps 743 mmHg 89%
    20:00 +12°C° 0.6 mm 4 mps 743 mmHg 90%
    21:00 +12°C° 0.6 mm 4 mps 743 mmHg 91%
    22:00 +12°C° 1.6 mm 4 mps 743 mmHg 92%
    23:00 +12°C° 1.6 mm 4 mps 742 mmHg 94%

    20 October, Friday

    Time Temperature Precipitation Wind Pressure Humidity
    00:00 +12°C° 1.6 mm 3 mps 742 mmHg 95%
    01:00 +11°C° 1.6 mm 4 mps 742 mmHg 93%
    02:00 +10°C° 1.6 mm 5 mps 742 mmHg 91%
    03:00 +9°C° 1.6 mm 6 mps 742 mmHg 88%
    04:00 +9°C° 0.1 mm 7 mps 742 mmHg 88%
    05:00 +8°C° 0.1 mm 7 mps 743 mmHg 87%
    06:00 +8°C° 0.1 mm 7 mps 744 mmHg 87%
    07:00 +8°C° 0 mm 7 mps 745 mmHg 84%
    08:00 +8°C° 0 mm 6 mps 745 mmHg 82%
    09:00 +8°C° 0 mm 6 mps 746 mmHg 80%
    10:00 +9°C° 0 mm 5 mps 747 mmHg 76%
    11:00 +10°C° 0 mm 5 mps 747 mmHg 72%
    12:00 +12°C° 0 mm 4 mps 748 mmHg 68%
    13:00 +12°C° 0 mm 3 mps 748 mmHg 68%
    14:00 +12°C° 0 mm 3 mps 748 mmHg 68%
    15:00 +13°C° 0 mm 2 mps 748 mmHg 68%
    16:00 +12°C° 0 mm 2 mps 748 mmHg 72%
    17:00 +10°C° 0 mm 2 mps 748 mmHg 75%
    18:00 +10°C° 0 mm 2 mps 748 mmHg 79%
    19:00 +10°C° 0 mm 3 mps 747 mmHg 78%
    20:00 +10°C° 0 mm 4 mps 746 mmHg 78%
    21:00 +9°C° 0 mm 5 mps 745 mmHg 78%
    22:00 +9°C° 0.8 mm 6 mps 744 mmHg 82%
    23:00 +9°C° 0.8 mm 6 mps 743 mmHg 86%

    21 October, Saturday

    Time Temperature Precipitation Wind Pressure Humidity
    00:00 +9°C° 0.8 mm 7 mps 742 mmHg 90%
    01:00 +10°C° 0.6 mm 7 mps 742 mmHg 90%
    02:00 +10°C° 0.6 mm 6 mps 741 mmHg 89%
    03:00 +10°C° 0.6 mm 6 mps 740 mmHg 89%
    04:00 +10°C° 0 mm 6 mps 740 mmHg 87%
    05:00 +9°C° 0 mm 7 mps 739 mmHg 85%
    06:00 +8°C° 0 mm 7 mps 739 mmHg 83%
    07:00 +9°C° 0 mm 8 mps 738 mmHg 80%
    08:00 +8°C° 0 mm 9 mps 738 mmHg 78%
    09:00 +9°C° 0 mm 10 mps 737 mmHg 75%
    10:00 +9°C° 0.1 mm 11 mps 736 mmHg 73%
    11:00 +11°C° 0.1 mm 11 mps 735 mmHg 72%
    12:00 +11°C° 0.1 mm 11 mps 734 mmHg 70%
    13:00 +11°C° 0.6 mm 11 mps 733 mmHg 73%
    14:00 +11°C° 0.6 mm 11 mps 732 mmHg 75%
    15:00 +11°C° 0.6 mm 10 mps 731 mmHg 78%
    16:00 +10°C° 0.2 mm 9 mps 730 mmHg 80%
    17:00 +10°C° 0.2 mm 9 mps 730 mmHg 82%
    18:00 +9°C° 0.2 mm 8 mps 730 mmHg 84%
    19:00 +9°C° 0.2 mm 8 mps 731 mmHg 85%
    20:00 +10°C° 0.2 mm 8 mps 731 mmHg 86%
    21:00 +10°C° 0.2 mm 8 mps 732 mmHg 87%
    22:00 +10°C° 0.3 mm 8 mps 733 mmHg 86%
    23:00 +10°C° 0.3 mm 9 mps 734 mmHg 85%

    22 October, Sunday

    Time Temperature Precipitation Wind Pressure Humidity
    00:00 +8°C° 0.3 mm 9 mps 735 mmHg 83%
    01:00 +8°C° 0.1 mm 9 mps 736 mmHg 83%
    02:00 +8°C° 0.1 mm 9 mps 737 mmHg 83%
    03:00 +8°C° 0.1 mm 9 mps 738 mmHg 82%
    04:00 +8°C° 0 mm 9 mps 738 mmHg 82%
    05:00 +7°C° 0 mm 9 mps 739 mmHg 81%
    06:00 +7°C° 0 mm 9 mps 740 mmHg 81%
    07:00 +7°C° 0 mm 10 mps 741 mmHg 79%
    08:00 +8°C° 0 mm 11 mps 742 mmHg 78%
    09:00 +8°C° 0 mm 11 mps 743 mmHg 77%
    10:00 +8°C° 0.1 mm 11 mps 743 mmHg 77%
    11:00 +8°C° 0.1 mm 12 mps 744 mmHg 76%
    12:00 +8°C° 0.1 mm 12 mps 745 mmHg 76%
    13:00 +8°C° 0 mm 12 mps 746 mmHg 74%
    14:00 +8°C° 0 mm 12 mps 746 mmHg 73%
    15:00 +8°C° 0 mm 11 mps 747 mmHg 72%
    16:00 +8°C° 0 mm 11 mps 747 mmHg 72%
    17:00 +7°C° 0 mm 10 mps 748 mmHg 73%
    18:00 +6°C° 0 mm 9 mps 749 mmHg 74%
    19:00 +6°C° 0 mm 8 mps 749 mmHg 75%
    20:00 +6°C° 0 mm 7 mps 749 mmHg 76%
    21:00 +6°C° 0 mm 7 mps 749 mmHg 77%
    22:00 +8°C° 0.1 mm 7 mps 749 mmHg 80%
    23:00 +9°C° 0.1 mm 7 mps 748 mmHg 83%
    Show more